Weather Roundup
Issued by NWS

Home | Current Version | Previous Version | Graphics & Text | Print | Product List | Glossary Off
Versions: 1 2 3 4 5 6 7 8 9 10 11 12 13 14 15 16 17 18 19 20 21 22 23 24 25 26 27 28 29 30 31 32 33 34 35 36 37 38 39 40 41 42 43 44 45 46 47 48 49 50

000
NZUS93 KARX 191310
HRRWXR

CURRENT HOURLY OBSERVATIONS ACROSS
MUCH OF THE UPPER MISSISSIPPI VALLEY
NATIONAL WEATHER SERVICE LA CROSSE WI
800 AM CDT FRI SEP 19 2014


...SOUTHEAST MINNESOTA...


CITY           SKY/WX    TMP DP  RH WIND       PRES   REMARKS
ROCHESTER      MOSUNNY   54  48  80 S15G22    30.00F
ROCHESTER/MAYO FAIR      55  47  72 SE9G21    29.98F
WINONA         MOSUNNY   55  50  82 SE7       30.01F
AUSTIN         SUNNY     54  48  82 S10       29.97F
ALBERT LEA     MOSUNNY   55  52  88 S13G18    29.95F
DODGE CENTER   MOSUNNY   55  50  82 S15       29.97F
PRESTON        MOSUNNY   53  52  97 S12       30.02F
OWATONNA       PTSUNNY   57  50  77 S16G22    29.93F
FARIBAULT      PTSUNNY   61  48  63 S12G21    29.92F
$$

...ELSEWHERE IN MINNESOTA...


CITY           SKY/WX    TMP DP  RH WIND       PRES   REMARKS
MINNEAPOLIS    PTSUNNY   58  51  78 SE9       29.91F
INTNL FALLS    CLOUDY    57  54  89 S8        29.65F
DULUTH         CLOUDY    56  51  84 S18       29.85F
RED WING       PTSUNNY   57  48  72 SE9       29.95F
REDWOOD FALLS  CLOUDY    62  57  83 S13       29.83F
MANKATO        MOCLDY    59  50  72 S12       29.90S
WORTHINGTON    CLOUDY    61  57  88 S14G20    29.87F VSB 1
FAIRMONT       CLOUDY    57  50  77 S13       29.91S
$$

...SOUTHWEST WISCONSIN...


CITY           SKY/WX    TMP DP  RH WIND       PRES   REMARKS
LA CROSSE      SUNNY     57  51  80 S9        30.05R
PRAIRIE DU CHI SUNNY     53  50  92 E3        30.09R FOG
BOSCOBEL       MOSUNNY   54  50  86 VRB3      30.10S FOG
LONE ROCK      MOSUNNY   54  49  83 E6        30.11R HAZE
PLATTEVILLE    MOSUNNY   51  50  97 CALM      30.11S
FORT MC COY    MOSUNNY   55  49  80 S9G16     30.07S
CAMP DOUGLAS   CLOUDY    48  48 100 SE5       30.10R FOG
VIROQUA        FAIR      51  51 100 SE8       30.08S
WIS DELLS      MOSUNNY   52  50  93 S3        30.11S FOG
$$

...ELSEWHERE IN WISCONSIN...


CITY           SKY/WX    TMP DP  RH WIND       PRES   REMARKS
MILWAUKEE      PTSUNNY   57  54  89 S7        30.16R
MADISON        PTSUNNY   57  54  89 S10       30.13R FOG
GREEN BAY      CLOUDY    55  55 100 S9        30.13F FOG
EAU CLAIRE     PTSUNNY   56  52  86 SE13      29.99F
BLACK RVR FLS  FAIR      46  46 100 CALM      30.05F FOG
MEDFORD        CLOUDY    49  48  97 S8        30.06F FOG
WAUSAU         CLOUDY    50  49  96 S10       30.08F FOG
WIS RAPIDS     CLOUDY    51  50  96 S7        30.11R FOG
MARSHFIELD     CLOUDY    51  50  96 S9        30.08S FOG
RICE LAKE      MOSUNNY   53  51  92 SE9       29.99F
$$

...NORTHEAST IOWA...


CITY           SKY/WX    TMP DP  RH WIND       PRES   REMARKS
WATERLOO       MOSUNNY   54  49  83 S12       30.04S
DUBUQUE        FOG       51  51 100 S6        30.10S VSB 1
DECORAH        SUNNY     52  50  93 SE8       30.04F FOG
MASON CITY     SUNNY     53  51  93 SE14      29.99F
CHARLES CITY   SUNNY     54  50  87 SE8       30.04S
OELWEIN        SUNNY     52  50  93 S9        30.07S FOG
$$

...ELSEWHERE IN IOWA...


CITY           SKY/WX    TMP DP  RH WIND       PRES   REMARKS
DES MOINES     MOSUNNY   58  54  86 S9        30.02S
IOWA CITY      SUNNY     51  50  96 SE5       30.09S
FORT DODGE     CLOUDY    59  55  88 S12       29.96F
MARSHALLTOWN   SUNNY     53  50  89 SE8       30.03S
CEDAR RAPIDS   SUNNY     53  51  93 S8        30.08R
$$

...NORTHERN ILLINOIS...


CITY           SKY/WX    TMP DP  RH WIND       PRES   REMARKS
CHICAGO-OHARE  MOSUNNY   57  51  80 S8        30.15S
DUPAGE         SUNNY     55  51  86 S7        30.15S
CHICAGO-MIDWAY MOSUNNY   58  51  78 SE9       30.15F
MOLINE         SUNNY     52  49  89 E5        30.11S FOG
ROCKFORD       PTSUNNY   55  52  89 S7        30.15S FOG
STERLING       MOSUNNY   52  50  93 SE3       30.13S
PEORIA         SUNNY     57  51  80 SE3       30.13S
$$

NOTE: "FAIR" INDICATES FEW OR NO CLOUDS BELOW 12,000 FEET WITH NO
SIGNIFICANT WEATHER AND/OR OBSTRUCTIONS TO VISIBILITY. WIND
SPEEDS ARE IN MILES-PER-HOUR.



USA.gov is the U.S. government's official web portal to all federal, state and local government web resources and services.